DW4238 Weather Reports


Display with metric or nautical units.
time (UTC)temp
F
wind
direction
speed
MPH
gust
MPH
rain 1hr
in
rain 24hr
in
rain mn
in
humidity
%
barometer
mb
20260503203044 79 171 7.0 12.0 0.00 0.00 0.00 45 1018.9
20260503202549 78 89 4.0 9.0 0.00 0.00 0.00 45 1019.0
20260503201547 78 142 4.0 11.0 0.00 0.00 0.00 45 1019.2
20260503201100 78 136 5.0 14.0 0.00 0.00 0.00 43 1019.3
20260503200123 78 126 10.0 13.0 0.00 0.00 0.00 44 1019.3
20260503195533 78 150 4.0 11.0 0.00 0.00 0.00 45 1019.2
20260503195125 78 115 6.0 11.0 0.00 0.00 0.00 43 1019.4
20260503194544 78 146 5.0 10.0 0.00 0.00 0.00 45 1019.5
20260503194029 78 143 5.0 10.0 0.00 0.00 0.00 47 1019.7
20260503193641 77 217 8.0 12.0 0.00 0.00 0.00 42 1019.8
20260503193044 78 184 8.0 12.0 0.00 0.00 0.00 42 1019.9
20260503192546 78 92 5.0 10.0 0.00 0.00 0.00 46 1020.0
20260503191600 77 137 7.0 13.0 0.00 0.00 0.00 43 1020.1
20260503191103 77 150 7.0 16.0 0.00 0.00 0.00 44 1020.1
20260503190124 77 126 6.0 11.0 0.00 0.00 0.00 46 1020.2
20260503185611 77 165 4.0 9.0 0.00 0.00 0.00 47 1020.3
20260503185124 77 157 5.0 14.0 0.00 0.00 0.00 46 1020.3
20260503184544 77 134 9.0 14.0 0.00 0.00 0.00 44 1020.5
20260503184053 77 198 3.0 9.0 0.00 0.00 0.00 46 1020.5
20260503183054 77 140 6.0 11.0 0.00 0.00 0.00 45 1020.7
20260503182544 77 137 5.0 11.0 0.00 0.00 0.00 49 1020.7
20260503181609 77 134 4.0 11.0 0.00 0.00 0.00 48 1020.9
20260503181114 76 144 7.0 14.0 0.00 0.00 0.00 47 1020.9
20260503180624 76 168 7.0 14.0 0.00 0.00 0.00 49 1020.9
20260503180050 76 126 5.0 11.0 0.00 0.00 0.00 49 1021.1
20260503175553 76 160 4.0 14.0 0.00 0.00 0.00 48 1021.1
20260503174613 76 138 4.0 9.0 0.00 0.00 0.00 50 1021.4
20260503174121 76 86 4.0 9.0 0.00 0.00 0.00 52 1021.5
20260503173559 76 115 4.0 9.0 0.00 0.00 0.00 53 1021.6
20260503173030 75 198 4.0 7.0 0.00 0.00 0.00 51 1021.6
20260503172616 75 205 3.0 10.0 0.00 0.00 0.00 52 1021.7
20260503172124 75 216 7.0 10.0 0.00 0.00 0.00 51 1021.8
20260503171530 75 149 2.0 9.0 0.00 0.00 0.00 51 1021.9
20260503171040 75 146 5.0 9.0 0.00 0.00 0.00 52 1022.0
20260503150108 70 195 5.0 7.0 0.00 0.00 0.00 65 1022.2
20260503131045 63 224 4.0 5.0 0.00 0.00 0.00 74 1021.4
20260503130552 62 250 2.0 4.0 0.00 0.00 0.00 76 1021.4
20260503110126 59 212 2.0 4.0 0.00 0.00 0.00 75 1020.2
20260503081553 62 261 0.0 0.0 0.00 0.00 0.00 70 1019.9
20260503081036 62 261 0.0 0.0 0.00 0.00 0.00 69 1019.9
20260503072614 63 261 2.0 3.0 0.00 0.00 0.00 67 1020.3
20260503072123 63 261 2.0 3.0 0.00 0.00 0.00 67 1020.4
20260503071542 64 261 1.0 3.0 0.00 0.00 0.00 66 1020.4
20260503071053 64 261 2.0 3.0 0.00 0.00 0.00 66 1020.4
20260503070616 64 261 2.0 3.0 0.00 0.00 0.00 65 1020.4
20260503055044 65 261 0.0 0.0 0.00 0.00 0.00 63 1020.4
20260503054544 65 261 0.0 0.0 0.00 0.00 0.00 62 1020.4
20260503054054 65 261 0.0 0.0 0.00 0.00 0.00 63 1020.4
20260503053540 65 261 0.0 0.0 0.00 0.00 0.00 63 1020.4
20260503053033 65 261 0.0 0.0 0.00 0.00 0.00 63 1020.4
20260503052542 65 261 0.0 0.0 0.00 0.00 0.00 62 1020.5
20260503052028 65 261 0.0 0.0 0.00 0.00 0.00 62 1020.5
20260503051553 65 261 0.0 0.0 0.00 0.00 0.00 62 1020.5
20260503051042 65 261 0.0 0.0 0.00 0.00 0.00 63 1020.4
20260503050543 65 261 0.0 0.0 0.00 0.00 0.00 63 1020.4
20260503050122 65 261 0.0 0.0 0.00 0.00 0.00 63 1020.3
20260503045529 65 261 0.0 0.0 0.00 0.00 0.00 63 1020.2
20260503044529 65 261 0.0 0.0 0.00 0.00 0.00 63 1020.3
20260503044142 65 261 0.0 0.0 0.00 0.00 0.00 62 1020.3
20260503043623 66 261 0.0 0.0 0.00 0.00 0.00 62 1020.4
20260503043033 66 261 0.0 0.0 0.00 0.00 0.00 62 1020.4
20260503042546 66 261 0.0 0.0 0.00 0.00 0.00 62 1020.3
20260503041606 66 261 0.0 0.0 0.00 0.00 0.00 62 1020.3
20260503041118 66 261 0.0 0.0 0.00 0.00 0.00 62 1020.3
20260503040622 66 261 0.0 0.0 0.00 0.00 0.00 62 1020.3
20260503040047 66 261 0.0 0.0 0.00 0.00 0.00 62 1020.2
20260503035550 65 261 0.0 0.0 0.00 0.00 0.00 63 1020.1
20260503034611 65 261 0.0 0.0 0.00 0.00 0.00 63 1020.1
20260503034104 65 261 0.0 0.0 0.00 0.00 0.00 63 1020.1
20260503033125 66 261 0.0 0.0 0.00 0.00 0.00 64 1020.1
20260503032534 66 261 0.0 0.0 0.00 0.00 0.00 63 1020.1
20260503031552 67 261 0.0 0.0 0.00 0.00 0.00 61 1019.7
20260503031102 68 261 0.0 0.0 0.00 0.00 0.00 60 1019.7
20260503025604 68 261 0.0 1.0 0.00 0.00 0.00 59 1019.4
20260503024619 68 261 1.0 2.0 0.00 0.00 0.00 59 1019.4
20260503024100 68 261 1.0 1.0 0.00 0.00 0.00 60 1019.3
20260503023615 68 261 0.0 0.0 0.00 0.00 0.00 60 1019.3
20260503023028 68 261 0.0 0.0 0.00 0.00 0.00 60 1019.3
20260503022538 68 261 0.0 0.0 0.00 0.00 0.00 59 1019.4
20260503021559 69 261 0.0 2.0 0.00 0.00 0.00 60 1019.3
20260503021107 68 261 0.0 2.0 0.00 0.00 0.00 59 1019.3
20260503020611 68 261 1.0 2.0 0.00 0.00 0.00 59 1019.2
20260503020041 69 261 0.0 1.0 0.00 0.00 0.00 59 1018.9
20260503015553 69 261 0.0 0.0 0.00 0.00 0.00 59 1018.9
20260503014546 69 261 0.0 0.0 0.00 0.00 0.00 59 1018.9
20260503014035 69 261 0.0 0.0 0.00 0.00 0.00 60 1018.9
20260503013625 70 261 0.0 0.0 0.00 0.00 0.00 60 1018.9
20260503013044 70 261 0.0 0.0 0.00 0.00 0.00 59 1018.8
20260503012527 71 261 0.0 0.0 0.00 0.00 0.00 57 1018.7
20260503011555 72 261 0.0 1.0 0.00 0.00 0.00 56 1018.6
20260503011102 72 262 0.0 2.0 0.00 0.00 0.00 56 1018.5
20260503010104 73 332 0.0 1.0 0.00 0.00 0.00 54 1018.5
20260503005607 73 332 0.0 1.0 0.00 0.03 0.00 54 1018.4
20260503005117 73 9 0.0 1.0 0.00 0.03 0.00 53 1018.4
20260503004536 73 277 0.0 2.0 0.00 0.03 0.00 54 1018.4
20260503004048 73 317 1.0 2.0 0.00 0.03 0.00 54 1018.4
20260503003050 73 317 1.0 3.0 0.00 0.03 0.00 54 1018.4
20260503002600 74 242 0.0 3.0 0.00 0.03 0.00 55 1018.3
20260503001625 74 10 1.0 3.0 0.00 0.03 0.00 54 1018.2
20260503001035 74 10 3.0 4.0 0.00 0.03 0.00 52 1018.2
20260503000617 74 5 2.0 5.0 0.00 0.03 0.00 53 1018.2
20260503000041 74 24 3.0 6.0 0.00 0.09 0.00 51 1018.2
20260502235644 74 13 4.0 6.0 0.00 0.09 0.00 51 1018.2
20260502235134 74 337 3.0 6.0 0.00 0.09 0.00 51 1018.2
20260502234538 74 18 3.0 6.0 0.00 0.09 0.00 54 1018.1
20260502234043 74 294 3.0 7.0 0.00 0.09 0.00 52 1018.1
20260502233053 74 34 4.0 8.0 0.00 0.09 0.00 51 1018.0
20260502232553 74 16 4.0 9.0 0.00 0.09 0.00 51 1018.1
20260502232103 74 347 5.0 11.0 0.00 0.09 0.00 50 1018.0
20260502231526 74 32 7.0 11.0 0.00 0.09 0.00 51 1018.1
20260502231137 74 355 2.0 9.0 0.00 0.09 0.00 52 1018.1
20260502230616 74 51 4.0 11.0 0.00 0.09 0.00 51 1018.0
20260502230043 74 56 6.0 11.0 0.00 0.16 0.00 50 1018.0
20260502225554 75 42 5.0 11.0 0.00 0.16 0.00 52 1018.0
20260502224542 75 346 3.0 12.0 0.00 0.16 0.00 53 1018.1
20260502224053 74 344 6.0 12.0 0.00 0.16 0.00 51 1018.1
20260502223602 74 333 5.0 10.0 0.00 0.16 0.00 51 1018.1
20260502223027 74 54 5.0 9.0 0.00 0.16 0.00 52 1018.1
20260502222538 74 47 4.0 12.0 0.00 0.16 0.00 52 1018.1
20260502221556 75 65 4.0 12.0 0.00 0.16 0.00 52 1018.2
20260502221047 74 35 5.0 12.0 0.00 0.16 0.00 54 1018.2
20260502220606 74 315 5.0 12.0 0.00 0.16 0.00 51 1018.3
20260502220037 74 336 7.0 12.0 0.00 0.20 0.00 51 1018.2
20260502215548 74 331 8.0 12.0 0.00 0.20 0.00 52 1018.2
20260502214550 74 42 6.0 13.0 0.00 0.20 0.00 53 1018.3
20260502214054 74 92 4.0 11.0 0.00 0.20 0.00 52 1018.4
20260502213120 74 20 5.0 11.0 0.00 0.20 0.00 53 1018.4
20260502212602 74 19 5.0 11.0 0.00 0.20 0.00 53 1018.5
20260502212120 74 12 4.0 12.0 0.00 0.20 0.00 53 1018.6
20260502211033 73 333 4.0 12.0 0.00 0.20 0.00 56 1018.7
20260502210054 73 38 5.0 12.0 0.00 0.20 0.00 57 1018.8
20260502205604 73 60 8.0 12.0 0.00 0.31 0.00 53 1019.0
20260502204605 73 360 4.0 11.0 0.00 0.31 0.00 55 1019.0
20260502204118 73 46 7.0 13.0 0.00 0.31 0.00 54 1019.0
20260502203559 73 49 7.0 13.0 0.00 0.31 0.00 55 1019.1